BHS377 MYNN-MYSM

Flight info

Callsign BHS377
Flight time 0h 39m
Altitude 19000
Route BOSAR DCT ORALS
Aircraft AT46/M-SDFGIRY/S

Departure

Time 2026-05-04 14:12
Airport Lynden Pindling International Airport (MYNN)

Arrival

Time 2026-05-04 14:52
Airport San Salvador International Airport (MYSM)
Time Latitude Longitude Altitude Speed Heading
2026-05-04 14:06 25.04733 -77.46619 13 ft 4 kts 252°
2026-05-04 14:06 25.04691 -77.46633 14 ft 15 kts 174°
2026-05-04 14:06 25.04529 -77.46551 14 ft 26 kts 192°
2026-05-04 14:07 25.04460 -77.46510 14 ft 16 kts 133°
2026-05-04 14:07 25.04382 -77.46425 14 ft 15 kts 137°
2026-05-04 14:07 25.04309 -77.46349 13 ft 14 kts 135°
2026-05-04 14:07 25.04243 -77.46272 13 ft 13 kts 131°
2026-05-04 14:08 25.04185 -77.46201 13 ft 13 kts 134°
2026-05-04 14:08 25.04061 -77.46070 13 ft 31 kts 134°
2026-05-04 14:08 25.03901 -77.45921 16 ft 20 kts 120°
2026-05-04 14:08 25.03836 -77.45811 14 ft 18 kts 127°
2026-05-04 14:09 25.03677 -77.45654 16 ft 14 kts 134°
2026-05-04 14:09 25.03561 -77.45520 13 ft 34 kts 135°
2026-05-04 14:10 25.03292 -77.45218 14 ft 21 kts 136°
2026-05-04 14:10 25.03181 -77.45181 17 ft 13 kts 191°
2026-05-04 14:10 25.03110 -77.45199 17 ft 8 kts 194°
2026-05-04 14:10 25.03080 -77.45211 17 ft 6 kts 223°
2026-05-04 14:11 25.03079 -77.45228 17 ft 5 kts 315°
2026-05-04 14:11 25.03816 -77.46040 104 ft 129 kts 312°
2026-05-04 14:11 25.04600 -77.46949 410 ft 171 kts 311°
2026-05-04 14:12 25.05467 -77.47912 611 ft 198 kts 312°
2026-05-04 14:12 25.06510 -77.49078 853 ft 221 kts 311°
2026-05-04 14:12 25.08801 -77.51632 1951 ft 237 kts 311°
2026-05-04 14:13 25.10121 -77.52723 2544 ft 241 kts 336°
2026-05-04 14:13 25.11784 -77.52824 3134 ft 251 kts 11°
2026-05-04 14:13 25.13396 -77.51770 3723 ft 260 kts 47°
2026-05-04 14:13 25.14094 -77.50458 4138 ft 263 kts 72°
2026-05-04 14:14 25.14216 -77.48609 4641 ft 262 kts 102°
2026-05-04 14:14 25.11839 -77.45771 5785 ft 251 kts 170°
2026-05-04 14:14 25.10258 -77.45565 6304 ft 251 kts 178°
2026-05-04 14:15 25.07071 -77.45128 7294 ft 257 kts 172°
2026-05-04 14:15 25.03752 -77.43391 8419 ft 267 kts 144°
2026-05-04 14:16 25.01161 -77.40402 9505 ft 267 kts 131°
2026-05-04 14:16 25.00024 -77.38749 9965 ft 264 kts 129°
2026-05-04 14:17 24.97871 -77.35473 10823 ft 259 kts 129°
2026-05-04 14:17 24.96821 -77.33847 11235 ft 257 kts 129°
2026-05-04 14:17 24.94693 -77.30633 12120 ft 254 kts 130°
2026-05-04 14:18 24.93644 -77.29072 12562 ft 253 kts 130°
2026-05-04 14:18 24.91525 -77.25933 13484 ft 250 kts 131°
2026-05-04 14:19 24.89473 -77.22904 14339 ft 245 kts 131°
2026-05-04 14:19 24.88450 -77.21395 14758 ft 242 kts 131°
2026-05-04 14:19 24.87451 -77.19923 15176 ft 237 kts 132°
2026-05-04 14:19 24.86465 -77.18469 15613 ft 229 kts 132°
2026-05-04 14:20 24.85572 -77.17135 16022 ft 196 kts 132°
2026-05-04 14:20 24.84891 -77.16007 16040 ft 176 kts 124°
2026-05-04 14:20 24.84315 -77.14711 15319 ft 220 kts 116°
2026-05-04 14:21 24.82387 -77.11870 15809 ft 252 kts 143°
2026-05-04 14:21 24.81045 -77.10419 16055 ft 275 kts 138°
2026-05-04 14:21 24.79744 -77.08769 16306 ft 294 kts 134°
2026-05-04 14:21 24.78446 -77.06917 16552 ft 309 kts 131°
2026-05-04 14:22 24.77624 -77.05684 16703 ft 316 kts 130°
2026-05-04 14:22 24.76277 -77.03649 16956 ft 325 kts 130°
2026-05-04 14:22 24.74845 -77.01476 17228 ft 333 kts 130°
2026-05-04 14:22 24.73455 -76.99354 17477 ft 338 kts 129°
2026-05-04 14:23 24.70600 -76.95085 17998 ft 344 kts 131°
2026-05-04 14:23 24.69156 -76.92955 18257 ft 346 kts 131°
2026-05-04 14:23 24.67736 -76.90865 18483 ft 347 kts 131°
2026-05-04 14:24 24.66319 -76.88783 18700 ft 348 kts 131°
2026-05-04 14:24 24.64809 -76.86569 18859 ft 351 kts 131°
2026-05-04 14:24 24.63453 -76.84222 18925 ft 360 kts 117°
2026-05-04 14:24 24.62655 -76.81643 18960 ft 360 kts 107°
2026-05-04 14:25 24.62088 -76.79036 18978 ft 358 kts 105°
2026-05-04 14:25 24.60848 -76.73745 18993 ft 354 kts 108°
2026-05-04 14:25 24.60135 -76.71131 18997 ft 354 kts 109°
2026-05-04 14:26 24.59440 -76.68495 18996 ft 354 kts 108°
2026-05-04 14:26 24.58765 -76.65898 18997 ft 353 kts 108°
2026-05-04 14:26 24.58082 -76.63275 19001 ft 353 kts 108°
2026-05-04 14:26 24.57409 -76.60695 18999 ft 352 kts 108°
2026-05-04 14:27 24.56913 -76.58789 18999 ft 352 kts 108°
2026-05-04 14:27 24.56239 -76.56205 18999 ft 352 kts 108°
2026-05-04 14:27 24.55594 -76.53733 19000 ft 352 kts 108°
2026-05-04 14:27 24.54922 -76.51164 19001 ft 352 kts 108°
2026-05-04 14:28 24.54246 -76.48581 19005 ft 352 kts 108°
2026-05-04 14:28 24.53798 -76.46869 19001 ft 352 kts 108°
2026-05-04 14:28 24.53111 -76.44250 19004 ft 352 kts 108°
2026-05-04 14:28 24.52427 -76.41638 18998 ft 352 kts 108°
2026-05-04 14:29 24.51072 -76.36479 19005 ft 352 kts 108°
2026-05-04 14:29 24.49707 -76.31287 19006 ft 351 kts 108°
2026-05-04 14:30 24.49014 -76.28650 19004 ft 351 kts 108°
2026-05-04 14:30 24.48810 -76.27872 19002 ft 351 kts 108°
2026-05-04 14:31 24.48524 -76.26783 19001 ft 351 kts 108°
2026-05-04 14:32 24.47143 -76.21548 19007 ft 351 kts 108°
2026-05-04 14:32 24.46448 -76.18910 19006 ft 351 kts 108°
2026-05-04 14:32 24.45798 -76.16447 19006 ft 351 kts 108°
2026-05-04 14:32 24.45028 -76.13525 19011 ft 351 kts 108°
2026-05-04 14:33 24.44388 -76.11113 19008 ft 351 kts 108°
2026-05-04 14:33 24.43698 -76.08505 19005 ft 351 kts 108°
2026-05-04 14:33 24.43034 -76.06001 19009 ft 351 kts 108°
2026-05-04 14:33 24.42536 -76.04119 19007 ft 351 kts 108°
2026-05-04 14:34 24.41875 -76.01623 19012 ft 351 kts 108°
2026-05-04 14:34 24.41154 -75.98915 19005 ft 351 kts 108°
2026-05-04 14:34 24.40638 -75.96972 19004 ft 351 kts 108°
2026-05-04 14:34 24.39948 -75.94364 19002 ft 350 kts 108°
2026-05-04 14:35 24.39255 -75.91784 19011 ft 350 kts 108°
2026-05-04 14:35 24.38568 -75.89196 19012 ft 350 kts 109°
2026-05-04 14:35 24.37883 -75.86626 19008 ft 350 kts 108°
2026-05-04 14:35 24.37177 -75.83989 19007 ft 350 kts 108°
2026-05-04 14:36 24.36552 -75.81635 19009 ft 350 kts 109°
2026-05-04 14:36 24.35782 -75.78757 19006 ft 350 kts 108°
2026-05-04 14:36 24.35120 -75.76277 19007 ft 349 kts 108°
2026-05-04 14:36 24.34458 -75.73806 19003 ft 349 kts 108°
2026-05-04 14:37 24.33820 -75.71424 19008 ft 349 kts 108°
2026-05-04 14:37 24.33072 -75.68626 19010 ft 349 kts 109°
2026-05-04 14:37 24.32375 -75.66030 19011 ft 349 kts 109°
2026-05-04 14:37 24.31729 -75.63614 19010 ft 349 kts 109°
2026-05-04 14:38 24.31009 -75.60934 19012 ft 348 kts 109°
2026-05-04 14:38 24.30317 -75.58356 19012 ft 349 kts 109°
2026-05-04 14:38 24.29640 -75.55840 18998 ft 349 kts 109°
2026-05-04 14:38 24.28934 -75.53219 18876 ft 345 kts 109°
2026-05-04 14:39 24.28269 -75.50778 18752 ft 333 kts 109°
2026-05-04 14:39 24.27626 -75.48383 18643 ft 323 kts 109°
2026-05-04 14:39 24.27014 -75.46095 18366 ft 322 kts 109°
2026-05-04 14:40 24.25718 -75.41287 17570 ft 323 kts 109°
2026-05-04 14:40 24.25084 -75.38930 17194 ft 322 kts 109°
2026-05-04 14:40 24.24445 -75.36574 16819 ft 322 kts 109°
2026-05-04 14:40 24.23802 -75.34187 16441 ft 322 kts 109°
2026-05-04 14:41 24.23371 -75.32597 16202 ft 321 kts 109°
2026-05-04 14:41 24.22714 -75.30166 15816 ft 321 kts 109°
2026-05-04 14:41 24.21419 -75.25390 15107 ft 320 kts 109°
2026-05-04 14:42 24.20151 -75.20712 14393 ft 319 kts 109°
2026-05-04 14:42 24.19509 -75.18351 14047 ft 319 kts 109°
2026-05-04 14:42 24.18876 -75.16027 13681 ft 318 kts 109°
2026-05-04 14:43 24.18250 -75.13715 13298 ft 317 kts 109°
2026-05-04 14:43 24.17621 -75.11375 12912 ft 316 kts 108°
2026-05-04 14:43 24.17020 -75.09049 12534 ft 315 kts 108°
2026-05-04 14:43 24.16449 -75.06814 12179 ft 314 kts 107°
2026-05-04 14:44 24.15862 -75.04515 11811 ft 314 kts 107°
2026-05-04 14:44 24.15274 -75.02212 11448 ft 313 kts 107°
2026-05-04 14:44 24.14682 -74.99892 11218 ft 307 kts 107°
2026-05-04 14:44 24.14124 -74.97705 11112 ft 299 kts 107°
2026-05-04 14:45 24.13561 -74.95502 11069 ft 291 kts 107°
2026-05-04 14:45 24.13030 -74.93423 11039 ft 285 kts 107°
2026-05-04 14:45 24.12498 -74.91350 11015 ft 280 kts 107°
2026-05-04 14:45 24.11978 -74.89320 11018 ft 275 kts 107°
2026-05-04 14:46 24.11464 -74.87315 11013 ft 271 kts 107°
2026-05-04 14:46 24.10958 -74.85342 11019 ft 268 kts 107°
2026-05-04 14:46 24.10442 -74.83336 11018 ft 266 kts 107°
2026-05-04 14:46 24.09940 -74.81387 10592 ft 281 kts 107°
2026-05-04 14:47 24.09421 -74.79368 10044 ft 270 kts 107°
2026-05-04 14:47 24.08933 -74.77454 9443 ft 253 kts 107°
2026-05-04 14:47 24.08469 -74.75643 8808 ft 243 kts 107°
2026-05-04 14:47 24.08006 -74.73852 8088 ft 238 kts 107°
2026-05-04 14:48 24.07724 -74.72121 7399 ft 232 kts 94°
2026-05-04 14:48 24.07640 -74.70347 6709 ft 229 kts 92°
2026-05-04 14:48 24.07582 -74.68604 6001 ft 226 kts 92°
2026-05-04 14:48 24.07497 -74.66844 5271 ft 224 kts 94°
2026-05-04 14:49 24.07376 -74.65150 4530 ft 222 kts 96°
2026-05-04 14:49 24.07236 -74.63475 3807 ft 220 kts 96°
2026-05-04 14:49 24.07106 -74.61877 3122 ft 215 kts 96°
2026-05-04 14:49 24.06981 -74.60335 2685 ft 169 kts 97°
2026-05-04 14:50 24.06887 -74.59177 2379 ft 142 kts 98°
2026-05-04 14:50 24.06801 -74.58121 1969 ft 134 kts 97°
2026-05-04 14:50 24.06728 -74.57219 1577 ft 132 kts 98°
2026-05-04 14:50 24.06648 -74.56287 1177 ft 131 kts 98°
2026-05-04 14:51 24.06586 -74.55592 852 ft 130 kts 98°
2026-05-04 14:51 24.06506 -74.54584 392 ft 128 kts 96°
2026-05-04 14:51 24.06414 -74.53554 57 ft 142 kts 97°
2026-05-04 14:51 24.06333 -74.52669 26 ft 115 kts 96°
2026-05-04 14:52 24.06285 -74.52026 32 ft 16 kts 91°
2026-05-04 14:52 24.06296 -74.52008 32 ft 2 kts 319°
2026-05-04 14:52 24.06296 -74.52123 31 ft 33 kts 271°
2026-05-04 14:52 24.06315 -74.52380 28 ft 47 kts 278°
2026-05-04 14:53 24.06346 -74.52836 26 ft 61 kts 279°
2026-05-04 14:53 24.06378 -74.53188 23 ft 33 kts 282°
2026-05-04 14:53 24.06515 -74.53265 26 ft 18 kts
2026-05-04 14:53 24.06582 -74.53223 24 ft 8 kts 81°
2026-05-04 14:54 24.06581 -74.53216 24 ft 0 kts 110°
2026-05-04 14:57 24.06579 -74.53214 24 ft 1 kts 136°
2026-05-04 14:58 24.06555 -74.53193 24 ft 11 kts 142°
2026-05-04 14:58 24.06582 -74.53067 28 ft 20 kts 66°
2026-05-04 14:58 24.06574 -74.52942 25 ft 12 kts 150°
2026-05-04 14:58 24.06526 -74.52943 25 ft 9 kts 194°
2026-05-04 14:59 24.06460 -74.52957 25 ft 6 kts 189°
2026-05-04 14:59 24.06371 -74.52966 25 ft 12 kts 154°
2026-05-04 14:59 24.06325 -74.52721 28 ft 8 kts 73°
2026-05-04 15:00 24.06340 -74.52720 27 ft 6 kts 286°
2026-05-04 15:00 24.06361 -74.52986 25 ft 64 kts 274°
2026-05-04 15:00 24.06408 -74.53709 94 ft 115 kts 270°
2026-05-04 15:01 24.06283 -74.55894 805 ft 172 kts 265°
2026-05-04 15:01 24.06198 -74.57297 1218 ft 197 kts 265°
2026-05-04 15:01 24.06126 -74.58872 1619 ft 217 kts 265°
2026-05-04 15:01 24.05750 -74.60494 2016 ft 227 kts 237°
2026-05-04 15:02 24.04626 -74.61724 2422 ft 232 kts 220°
2026-05-04 15:02 24.03387 -74.62902 2795 ft 240 kts 223°
2026-05-04 15:02 24.02185 -74.64204 3183 ft 246 kts 228°
2026-05-04 15:02 24.01080 -74.65650 3554 ft 250 kts 232°
2026-05-04 15:03 24.00032 -74.67185 3936 ft 253 kts 234°
2026-05-04 15:03 23.98966 -74.68775 4344 ft 256 kts 234°
2026-05-04 15:03 23.97980 -74.70233 4708 ft 258 kts 234°
2026-05-04 15:03 23.96901 -74.71804 5085 ft 260 kts 234°
2026-05-04 15:04 23.95712 -74.73503 5496 ft 262 kts 233°
2026-05-04 15:04 23.94664 -74.74988 5864 ft 263 kts 233°
2026-05-04 15:04 23.93530 -74.76584 6257 ft 265 kts 233°
2026-05-04 15:04 23.92406 -74.78184 6647 ft 266 kts 234°
2026-05-04 15:05 23.91270 -74.79807 6864 ft 274 kts 234°
2026-05-04 15:05 23.90098 -74.81483 6927 ft 280 kts 234°
2026-05-04 15:05 23.88939 -74.83138 6948 ft 282 kts 234°
2026-05-04 15:05 23.87716 -74.84885 6978 ft 282 kts 234°
2026-05-04 15:06 23.86530 -74.86580 7233 ft 278 kts 234°
2026-05-04 15:06 23.85351 -74.88264 7547 ft 277 kts 234°
2026-05-04 15:06 23.84187 -74.89926 7862 ft 277 kts 234°
2026-05-04 15:07 23.81819 -74.93305 8499 ft 278 kts 234°
2026-05-04 15:07 23.80678 -74.94930 8792 ft 279 kts 234°
2026-05-04 15:07 23.79480 -74.96639 8893 ft 284 kts 234°
2026-05-04 15:07 23.78294 -74.98331 8937 ft 287 kts 234°
2026-05-04 15:08 23.77081 -75.00060 8957 ft 287 kts 234°
2026-05-04 15:08 23.75849 -75.01814 8971 ft 288 kts 234°
2026-05-04 15:08 23.74558 -75.03652 8975 ft 288 kts 234°
2026-05-04 15:08 23.73404 -75.05295 8970 ft 288 kts 234°
2026-05-04 15:09 23.72518 -75.06558 8974 ft 288 kts 234°
2026-05-04 15:09 23.71360 -75.08210 8819 ft 259 kts 235°
2026-05-04 15:09 23.70303 -75.09750 8184 ft 238 kts 235°
2026-05-04 15:10 23.67995 -75.12043 6801 ft 218 kts 204°
2026-05-04 15:10 23.67032 -75.12437 6324 ft 218 kts 202°
2026-05-04 15:10 23.64094 -75.13551 4823 ft 217 kts 201°
2026-05-04 15:11 23.62717 -75.14056 4106 ft 215 kts 200°
2026-05-04 15:11 23.61294 -75.14575 3388 ft 212 kts 200°
2026-05-04 15:11 23.59934 -75.15075 2672 ft 211 kts 200°
2026-05-04 15:11 23.58552 -75.15730 1901 ft 202 kts 219°
2026-05-04 15:12 23.57814 -75.16981 1403 ft 190 kts 247°
2026-05-04 15:12 23.57353 -75.18264 1182 ft 180 kts 248°
2026-05-04 15:12 23.56959 -75.19490 1095 ft 176 kts 253°
2026-05-04 15:12 23.56807 -75.20807 1018 ft 168 kts 265°
2026-05-04 15:13 23.56863 -75.22032 982 ft 151 kts 273°
2026-05-04 15:13 23.57003 -75.23117 950 ft 141 kts 276°
2026-05-04 15:13 23.57147 -75.24158 681 ft 136 kts 276°
2026-05-04 15:13 23.57412 -75.25108 299 ft 129 kts 292°
2026-05-04 15:14 23.57812 -75.25980 127 ft 131 kts 293°
2026-05-04 15:14 23.58241 -75.26759 10 ft 77 kts 294°
2026-05-04 15:14 23.58416 -75.27061 11 ft 9 kts 326°
2026-05-04 15:14 23.58425 -75.27045 11 ft 9 kts 118°
2026-05-04 15:15 23.58292 -75.26858 10 ft 45 kts 129°
2026-05-04 15:15 23.58160 -75.26621 10 ft 26 kts 81°
2026-05-04 15:15 23.58183 -75.26501 12 ft 13 kts 124°
2026-05-04 15:16 23.58163 -75.26483 12 ft 0 kts 185°
2026-05-04 15:16 23.58169 -75.26453 13 ft 0 kts 82°